{"data":{"norad_id":69714,"epoch":"2026-09-19T01:38:11.112288Z","epoch_age_seconds":145340,"freshness":"FRESH","line1":"1 69714U 26147L   26262.06818417  .00011955  00000+0  37208-3 0  9993","line2":"2 69714  97.2837 298.4351 0000362 229.6472 130.4739 15.33443030 14019","mean_motion":15.3344303,"eccentricity":3.62e-5,"inclination_deg":97.2837,"raan_deg":298.4351,"arg_perigee_deg":229.6472,"mean_anomaly_deg":130.4739,"bstar":0.00037208,"rev_number":1401,"period_min":93.906325297263,"perigee_km":465.3012943839,"apogee_km":465.79677725289,"semimajor_km":6843.6860358184,"source":"CELESTRAK","updated_at":"2026-09-20T09:00:44.259586Z"}}